Probability
0 0 0 0 0 0 0 0 0 0 0 0 0 0 1 2 2 2 2 2 1 1 2 3 4 4 4 4 4 3 3 3 3 3 3 2 1 0 0 0 0 0 0 0
0 0 0 0 0 0 0 0 0 0 0 0 0 0 0 1 2 2 3 3 1 0 1 1 2 2 3 4 4 3 3 3 3 3 3 2 0 0 0 0 0 0 0 0
0 0 0 0 0 0 0 0 0 0 0 0 0 0 0 1 2 3 4 3 2 1 1 0 0 0 1 3 5 4 3 3 3 3 3 2 0 0 0 0 0 0 0 0
0 0 0 0 0 0 0 0 0 0 0 0 0 0 0 1 1 2 3 3 4 3 2 1 0 0 0 2 4 5 4 3 2 2 2 1 0 0 0 0 0 0 0 0
0 0 0 0 0 0 0 0 0 0 0 0 0 0 0 1 2 1 1 3 5 5 4 2 2 2 2 3 4 5 4 2 1 1 1 0 0 0 0 0 0 0 0 0
0 0 0 0 0 0 0 0 0 0 0 0 0 0 0 1 1 1 0 2 4 5 4 3 3 3 5 6 6 6 4 2 0 0 0 0 0 0 0 0 0 0 0 0
0 0 0 0 0 0 0 0 0 0 0 0 0 0 0 0 0 0 0 1 3 4 3 2 3 4 6 8 9 9 8 4 2 1 1 1 0 0 1 1 1 0 0 0
0 0 0 0 0 0 0 0 0 0 0 0 0 0 0 0 0 0 0 0 1 2 2 1 2 3 6 9 11 11 11 9 6 4 4 3 3 3 4 4 3 1 0 0
0 0 0 0 0 0 0 0 0 0 0 0 0 0 0 0 0 0 0 1 3 3 2 1 1 2 5 8 9 10 11 11 11 9 7 7 7 9 9 8 7 5 3 1
0 0 0 0 0 0 0 0 0 0 0 0 0 0 0 0 0 0 0 3 5 5 3 1 0 1 3 5 6 8 10 11 11 11 9 7 9 11 12 12 11 10 7 5
0 0 0 0 0 0 0 0 0 0 0 0 0 0 0 0 0 0 2 4 6 6 4 1 1 2 4 5 5 8 10 9 10 11 9 8 9 11 13 14 15 14 11 9
0 0 0 0 0 0 0 0 0 0 0 0 0 0 0 0 1 2 4 6 6 6 5 3 3 5 7 7 7 10 11 10 10 11 11 10 12 14 14 15 16 14 11 10
0 0 0 0 0 0 0 0 0 0 0 0 0 0 1 2 4 7 7 7 6 6 6 5 5 6 8 9 10 11 11 10 11 13 14 14 15 18 18 17 16 14 11 11
0 0 0 0 0 0 0 0 0 0 0 0 0 1 2 5 7 9 9 7 6 6 6 6 5 6 8 10 11 11 9 10 12 14 17 18 19 21 21 20 18 15 12 11
0 0 0 0 0 0 0 0 0 0 0 0 0 1 3 6 9 10 10 10 8 7 7 7 6 7 9 11 12 10 8 9 12 15 17 19 21 22 21 19 17 15 13 11
0 0 0 0 0 0 0 0 0 0 0 0 0 1 3 7 10 11 13 14 13 10 8 8 8 9 10 11 10 9 9 10 13 15 17 18 20 21 19 15 13 12 11 11
0 0 0 0 0 0 0 0 1 1 2 2 2 2 6 10 12 13 15 17 17 13 10 9 9 8 8 7 8 9 9 11 14 17 18 20 21 21 18 13 10 9 10 10
0 0 0 0 0 0 0 0 1 3 4 5 4 6 9 13 15 16 16 18 18 15 13 11 9 5 3 3 5 8 10 12 16 19 20 20 21 21 18 13 9 8 9 9
0 0 0 0 1 1 0 0 1 3 4 5 6 9 12 16 17 16 16 16 16 15 14 12 10 7 4 4 6 9 11 13 16 19 19 18 18 18 16 13 12 11 11 10
0 0 0 0 1 1 0 0 1 2 3 3 5 9 12 13 14 13 12 12 11 12 12 12 12 11 9 8 9 11 13 13 14 16 16 14 12 12 12 12 13 14 14 13
0 0 0 0 1 1 0 0 1 2 2 2 5 8 10 9 9 9 9 9 9 10 11 12 13 13 11 11 12 12 12 11 11 12 13 11 9 7 8 10 12 14 15 16
0 0 0 0 0 0 0 0 0 1 1 1 4 7 8 7 6 7 8 8 9 10 10 11 12 12 10 11 12 12 10 10 10 10 10 9 8 6 6 8 10 12 15 17
0 0 0 0 0 0 0 0 0 0 0 1 3 6 7 7 6 6 5 5 7 8 7 8 10 10 9 10 12 12 9 8 9 9 8 7 6 6 5 6 7 10 12 14
0 0 0 0 0 0 0 0 0 0 0 1 3 4 5 6 5 4 2 2 3 4 5 6 9 10 8 8 10 10 9 8 8 8 7 5 4 4 4 4 5 6 9 10
0 0 0 0 0 0 0 0 0 0 0 1 3 3 3 3 3 2 1 1 1 2 2 3 5 7 6 6 7 8 8 8 7 7 5 4 3 3 3 3 3 3 5 7
0 0 0 0 0 0 0 0 0 0 1 2 3 3 2 1 1 1 1 0 0 1 0 0 1 3 4 5 6 6 6 6 7 6 4 2 3 3 3 3 2 1 2 4
Wind_Speed
2 4 3 5 6 5 3 2 3 4 2 2 2 2 3 5 6 5 5 6 7 7 5 5 5 5 4 4 4 4 3 3 3 2 2 1 1 1 1 2 3 4 5 5
4 2 6 4 3 3 3 1 3 3 1 2 1 2 2 4 6 6 7 7 8 5 4 5 5 5 6 5 5 5 4 4 3 3 2 1 1 1 1 2 2 4 5 5
5 5 2 3 2 2 2 4 4 3 2 3 2 4 2 2 2 2 4 5 6 8 8 7 7 7 7 7 7 6 5 4 4 3 2 2 1 1 0 1 1 3 4 5
3 4 2 2 2 4 4 5 5 3 2 2 1 2 6 3 2 4 5 5 5 6 8 8 8 8 8 8 7 6 5 5 4 4 4 4 3 2 2 1 2 2 3 4
3 2 2 2 4 5 5 1 3 2 3 1 2 1 8 2 4 6 6 6 6 6 8 9 10 9 8 8 7 6 5 4 4 5 5 4 3 3 1 1 2 2 2 3
3 2 2 4 2 3 3 5 6 6 5 1 2 2 7 4 5 5 4 5 5 7 7 7 7 6 6 6 6 6 5 5 4 5 5 5 5 4 3 2 2 2 2 2
4 3 2 2 2 3 5 6 4 4 4 4 2 2 8 6 4 4 4 4 4 5 6 7 7 7 7 8 7 7 7 6 5 4 4 5 5 4 4 3 3 3 2 2
0 5 3 1 5 4 3 8 8 5 5 4 2 4 7 4 3 2 1 2 2 2 3 5 7 8 7 7 7 7 7 6 5 5 5 4 4 4 3 4 3 3 3 3
4 5 4 2 1 7 4 2 5 7 2 0 4 5 8 2 4 3 2 2 1 1 2 3 4 5 6 6 6 7 6 5 6 6 5 4 4 4 4 4 4 3 3 3
7 3 4 4 4 4 4 7 6 6 5 2 4 4 5 4 3 3 1 0 1 1 2 2 3 3 4 4 4 4 5 6 5 4 5 4 4 4 4 3 4 4 4 3
4 4 4 4 2 1 3 4 5 4 5 6 3 7 5 5 4 3 2 1 1 1 2 3 3 3 3 3 3 3 3 4 4 4 4 3 3 3 3 3 4 4 4 4
3 5 1 4 3 1 3 4 6 5 3 4 4 8 3 2 3 3 2 1 0 1 1 3 3 3 2 2 3 3 3 4 4 4 3 3 3 2 3 3 3 3 3 4
5 6 3 5 5 4 2 2 3 5 5 4 4 7 2 1 0 1 0 0 0 1 2 2 2 3 2 2 2 2 2 3 3 3 3 3 3 3 3 3 2 2 2 2
6 5 6 8 7 3 0 1 2 5 4 4 7 6 4 2 2 2 1 1 0 1 2 2 2 2 2 2 2 2 2 2 2 3 3 3 3 3 3 3 3 3 2 2
5 4 2 3 3 2 2 3 3 4 6 7 7 7 7 5 4 3 1 1 1 1 1 2 1 1 1 1 1 1 1 1 2 3 3 4 3 2 2 2 2 2 2 3
4 4 2 1 1 2 2 2 3 3 3 4 2 5 4 1 1 0 1 1 2 1 1 1 1 1 1 1 1 1 1 1 2 3 3 2 2 2 2 2 2 2 3 2
2 5 4 2 2 1 3 4 4 3 3 5 6 6 2 1 1 2 2 1 2 2 2 2 2 2 2 2 1 2 1 1 2 2 2 2 2 2 2 2 2 3 3 3
5 5 3 2 1 5 6 2 3 3 2 2 3 2 3 3 1 1 1 1 1 2 2 2 2 1 1 1 1 1 1 1 1 1 1 1 2 2 1 2 2 2 2 3
5 7 5 4 3 4 4 2 2 3 2 2 3 2 2 2 3 2 2 1 1 2 2 2 2 1 1 1 1 2 2 2 1 1 1 2 1 2 2 2 2 2 2 3
5 5 6 4 4 6 7 3 1 2 3 2 3 3 2 2 1 4 3 2 2 1 1 1 1 0 0 1 1 2 1 1 2 3 2 2 1 2 2 2 3 2 2 3
3 3 3 4 4 7 5 2 1 3 7 3 3 3 3 3 4 3 2 2 2 1 2 1 0 0 1 0 1 1 1 2 3 2 1 1 1 2 2 2 2 2 2 1
3 3 3 4 3 7 3 1 4 6 1 2 2 2 3 2 1 1 1 1 2 2 2 1 0 1 1 0 1 1 2 3 2 1 1 1 2 2 1 1 1 1 2 2
3 5 5 6 6 5 3 4 3 2 2 2 2 2 3 2 2 1 1 1 1 1 2 1 1 1 2 1 1 2 3 2 1 1 2 2 2 1 1 1 1 1 1 2
2 1 2 2 4 4 3 2 1 0 1 2 2 2 3 2 2 1 2 2 1 1 2 2 1 1 2 2 1 2 2 2 1 1 2 2 1 1 1 1 1 2 2 2
3 1 1 2 4 4 4 3 1 1 1 0 0 1 2 3 2 2 2 3 2 2 2 1 2 2 3 2 2 2 2 1 1 2 2 2 2 2 2 1 2 3 3 3
4 5 4 6 6 4 5 4 1 1 1 1 1 1 1 2 3 3 3 3 2 2 2 1 1 2 3 2 2 2 1 0 1 2 2 2 2 2 1 1 1 2 2 2
Wind_Direction
88 89 191 214 197 185 174 190 261 269 251 134 202 250 234 193 185 186 192 196 202 207 192 173 174 171 169 178 179 179 170 164 146 143 153 159 182 180 190 198 190 180 178 175
50 258 230 198 174 161 168 217 279 306 25 134 191 294 252 201 200 197 196 200 204 196 181 180 175 172 178 191 194 185 182 173 169 172 168 164 154 174 192 202 193 184 181 181
184 234 195 157 157 160 217 197 219 226 8 40 67 337 309 277 210 206 208 204 199 197 195 191 188 189 189 195 199 196 189 182 178 167 138 115 84 58 85 175 199 192 186 189
225 252 173 166 206 164 250 223 192 182 109 309 89 280 290 274 274 236 229 211 210 208 194 191 193 193 200 202 196 188 183 180 175 166 163 166 176 195 214 199 195 191 184 189
245 221 175 216 225 175 218 180 150 146 132 39 18 154 287 320 281 260 237 220 213 202 192 193 195 195 196 193 189 183 177 182 177 173 178 178 190 201 196 180 181 194 199 198
250 245 192 214 227 172 146 68 57 51 69 354 263 168 279 258 243 261 237 224 216 200 193 193 186 177 182 184 183 177 174 187 181 178 182 187 193 193 189 204 204 208 209 211
331 319 287 149 64 35 84 87 42 9 17 255 268 183 252 263 253 242 239 223 212 198 190 185 175 173 181 186 186 181 180 188 184 181 191 197 199 196 199 208 210 210 213 218
166 292 273 204 174 179 167 138 154 187 210 267 319 233 256 280 294 282 243 182 147 170 188 189 184 180 184 185 183 182 186 191 184 189 201 201 199 199 209 209 207 211 216 222
174 258 294 290 190 138 133 154 154 129 133 122 281 288 301 333 2 15 42 73 108 172 176 173 167 168 172 181 192 186 184 189 191 197 197 198 202 205 212 213 212 217 222 223
156 232 297 309 59 38 124 139 99 117 142 221 284 273 257 292 302 332 358 275 240 182 136 134 143 156 167 179 186 186 190 194 191 191 200 207 207 213 217 214 222 226 228 223
132 158 312 14 76 181 83 81 96 106 144 156 222 263 230 215 225 225 256 270 226 194 149 138 139 141 152 159 166 190 198 189 185 191 198 210 211 213 213 221 229 227 230 220
130 121 232 276 279 261 141 147 140 145 201 170 177 259 280 211 210 196 242 320 333 109 128 136 143 138 136 153 170 189 191 193 195 190 191 206 201 195 211 228 237 231 230 227
131 111 78 346 338 2 63 103 118 118 117 152 173 257 307 21 33 201 165 10 84 125 114 114 130 144 159 176 185 184 190 200 194 177 179 192 198 199 216 227 225 232 236 243
111 111 159 192 216 211 242 182 136 119 140 197 219 238 284 303 289 299 315 309 90 149 142 133 145 159 167 182 190 187 203 198 188 180 185 204 216 214 216 212 203 203 212 233
99 121 176 218 228 196 212 224 185 187 188 192 224 218 240 237 224 236 248 240 115 120 131 152 169 187 173 163 185 192 200 194 186 183 200 218 223 216 211 208 205 198 210 227
70 124 119 289 261 217 228 257 211 217 203 211 213 248 251 226 147 167 198 176 179 200 210 204 184 206 211 194 197 200 202 193 176 189 215 223 206 196 210 219 208 206 218 225
94 123 122 231 291 50 245 232 210 213 214 184 206 226 184 149 183 208 197 188 224 227 228 229 222 219 222 220 189 192 199 175 166 181 204 212 205 206 215 228 228 224 226 225
136 117 128 147 109 220 242 252 184 177 231 218 204 191 178 184 199 225 153 162 276 296 286 272 260 251 241 229 210 161 139 140 179 202 207 215 212 219 220 211 227 238 232 225
145 136 127 133 182 261 286 250 170 168 264 233 169 146 126 103 55 354 5 23 279 268 291 278 254 237 224 209 190 145 136 137 166 227 226 226 213 217 222 219 231 232 227 230
71 98 119 135 167 225 239 255 197 113 266 232 164 163 159 100 75 278 314 337 334 342 346 324 296 92 174 243 149 134 157 175 225 234 238 239 223 219 228 234 238 238 231 236
52 61 124 161 204 254 255 283 102 179 235 209 174 175 167 182 209 240 288 307 318 339 348 350 35 350 271 296 112 139 227 249 254 247 234 228 231 226 230 243 240 233 228 228
176 156 175 153 189 251 271 115 181 216 232 170 182 183 179 206 232 242 261 313 336 337 346 344 125 309 309 290 143 196 267 268 272 252 249 254 258 261 271 247 257 241 220 217
194 191 184 189 214 255 271 239 245 184 175 217 208 210 169 187 252 277 270 293 313 320 318 303 236 291 300 271 195 224 267 278 274 248 260 271 272 267 258 234 246 259 237 228
278 150 149 257 276 286 291 293 303 224 206 222 197 181 169 186 218 269 284 284 286 288 294 294 276 284 287 283 274 254 270 269 257 262 266 261 254 265 269 256 239 233 232 223
239 168 154 264 278 316 317 298 284 1 63 87 164 172 176 166 200 211 245 269 271 265 272 269 258 271 283 296 294 285 279 257 256 268 274 279 269 247 241 243 240 240 247 237
213 189 187 230 233 214 255 269 244 181 195 195 184 258 248 194 207 217 234 249 253 261 266 263 257 273 282 292 295 301 313 278 251 271 265 258 259 252 238 234 289 290 253 266